Tracking 22881 objects as of 19-Apr-2021
HD Live streaming from Space Station
objects crossing your sky now

STARLINK-1109

Track STARLINK-1109 now!
10-day predictions
STARLINK-1109 is classified as:


NORAD ID: 44945
Int'l Code: 2020-001AH
Perigee: 553.6 km
Apogee: 555.1 km
Inclination: 53.1 °
Period: 95.6 minutes
Semi major axis: 6925 km
RCS: Unknown
Launch date: January 7, 2020
Source: United States (US)
Launch site: AIR FORCE EASTERN TEST RANGE (AFETR)
aabbcc
Your satellite tracking list
Your tracking list is empty




NASA's NSSDC Master Catalog

Two Line Element Set (TLE):
1 44945U 20001AH  21109.18251615 -.00000219  00000-0  42103-5 0  9999
2 44945  53.0587  62.0560 0001132  67.6262 292.4847 15.06405298 71005
Source of the keplerian elements: AFSPC